Southend-On-Sea, United Kingdom

4:36 AM GMT on December 15, 2018 (GMT +0000)
Southend

Weather History for EGMC - October, 2018

Change the Weather History Date:

Thursday, October 11, 2018

  Actual Average Record
Temperature  
Mean Temperature 62 °F -  
Max Temperature 69 °F 55 °F 69 °F (2005)
Min Temperature 55 °F 44 °F 41 °F (2016)
Degree Days  
Heating Degree Days 3    
Growing Degree Days 12 (Base 50)    
Moisture  
Dew Point 56 °F    
Average Humidity 74    
Maximum Humidity 94    
Minimum Humidity 60    
Precipitation  
Precipitation 0.00 in - - ()
Sea Level Pressure  
Sea Level Pressure 29.69 in    
Wind  
Wind Speed 12 mph ()    
Max Wind Speed 21 mph    
Max Gust Speed -    
Visibility 5.9 miles    
Events Rain    
Averages and records for this station are not official NWS values.
T = Trace of Precipitation, MM = Missing Value Source: Averaged Metar Reports

Daily Weather History Graph

Daily Weather History Graph

Search for Another Location

Airport or City:

Astronomy

Oct. 11, 2018 Rise Set
Actual Time 7:14 AM BST 6:12 PM BST
Civil Twilight 6:40 AM BST 6:46 PM BST
Nautical Twilight 6:01 AM BST 7:24 PM BST
Astronomical Twilight 5:22 AM BST 8:03 PM BST
Moon 9:41 AM BST (10/11) 7:46 PM BST (10/11)
Length of Visible Light 12h 05m
Length of Day
10h 58m
Waxing Crescent, 6% of the Moon is Illuminated
Oct 11
Waxing Crescent
Oct 16
First Quarter
Oct 24
Full
Oct 31
Last Quarter
Nov 7
New

Hourly Weather History & Observations

Time (BST) Temp. Dew Point Humidity Pressure Visibility Wind Dir Wind Speed Gust Speed Precip Events Conditions
12:50 AM 55.4 °F 53.6 °F 94% 29.71 in 3.7 mi ESE 6.9 mph - N/A   Unknown
1:50 AM 55.4 °F 53.6 °F 94% 29.68 in 3.7 mi SE 6.9 mph - N/A   Unknown
2:50 AM 60.8 °F 53.6 °F 77% 29.68 in 3.7 mi SSE 9.2 mph - N/A   Unknown
3:50 AM 62.6 °F 53.6 °F 72% 29.65 in 4.3 mi SSE 12.7 mph - N/A   Unknown
7:50 AM 59.0 °F 53.6 °F 82% 29.68 in 6.2 mi SSE 11.5 mph - N/A   Partly Cloudy
8:50 AM 60.8 °F 55.4 °F 82% 29.68 in 6.2 mi South 13.8 mph - N/A   Partly Cloudy
9:20 AM 60.8 °F 55.4 °F 82% 29.68 in 6.2 mi South 16.1 mph - N/A   Partly Cloudy
9:50 AM 62.6 °F 55.4 °F 77% 29.68 in 6.2 mi South 18.4 mph - N/A   Partly Cloudy
10:20 AM 62.6 °F 55.4 °F 77% 29.68 in 6.2 mi South 16.1 mph - N/A   Partly Cloudy
10:50 AM 64.4 °F 57.2 °F 77% 29.68 in 6.2 mi South 16.1 mph - N/A   Partly Cloudy
11:20 AM 66.2 °F 57.2 °F 73% 29.68 in 6.2 mi South 17.3 mph - N/A   Partly Cloudy
11:50 AM 69.8 °F 60.8 °F 73% 29.65 in 6.2 mi South 20.7 mph - N/A   Partly Cloudy
12:20 PM 69.8 °F 57.2 °F 64% 29.65 in 6.2 mi South 19.6 mph - N/A   Partly Cloudy
12:50 PM 69.8 °F 57.2 °F 64% 29.65 in 6.2 mi South 18.4 mph - N/A   Partly Cloudy
1:20 PM 68.0 °F 53.6 °F 60% 29.65 in 6.2 mi SSE 16.1 mph - N/A   Partly Cloudy
1:50 PM 68.0 °F 53.6 °F 60% 29.65 in 6.2 mi SSE 18.4 mph - N/A   Partly Cloudy
2:20 PM 69.8 °F 55.4 °F 60% 29.65 in 6.2 mi SSE 15.0 mph - N/A   Partly Cloudy
2:50 PM 69.8 °F 55.4 °F 60% 29.65 in 6.2 mi South 18.4 mph - N/A   Partly Cloudy
3:20 PM 68.0 °F 55.4 °F 64% 29.65 in 6.2 mi South 18.4 mph - N/A   Scattered Clouds
3:50 PM 69.8 °F 55.4 °F 60% 29.68 in 6.2 mi South 16.1 mph - N/A   Scattered Clouds
4:20 PM 68.0 °F 57.2 °F 68% 29.68 in 6.2 mi South 13.8 mph - N/A   Partly Cloudy
4:50 PM 68.0 °F 57.2 °F 68% 29.68 in 6.2 mi South 15.0 mph - N/A   Partly Cloudy
5:20 PM 66.2 °F 55.4 °F 68% 29.68 in 6.2 mi South 15.0 mph - N/A   Partly Cloudy
5:50 PM 66.2 °F 57.2 °F 73% 29.68 in 6.2 mi South 13.8 mph - N/A   Partly Cloudy
6:20 PM 64.4 °F 57.2 °F 77% 29.71 in 6.2 mi South 10.4 mph - N/A   Partly Cloudy
6:50 PM 64.4 °F 55.4 °F 73% 29.71 in 6.2 mi South 10.4 mph - N/A   Partly Cloudy
7:20 PM 64.4 °F 55.4 °F 73% 29.71 in 6.2 mi South 9.2 mph - N/A   Partly Cloudy
7:50 PM 64.4 °F 55.4 °F 73% 29.71 in 6.2 mi South 13.8 mph - N/A   Scattered Clouds
8:20 PM 64.4 °F 57.2 °F 77% 29.71 in 6.2 mi South 10.4 mph - N/A   Partly Cloudy
8:50 PM 64.4 °F 55.4 °F 73% 29.71 in 6.2 mi South 12.7 mph - N/A   Partly Cloudy
9:20 PM 62.6 °F 55.4 °F 77% 29.71 in 6.2 mi SSW 15.0 mph - N/A Rain Light Rain Showers
9:50 PM 60.8 °F 55.4 °F 82% 29.71 in 6.2 mi SSW 11.5 mph - N/A Rain Light Rain Showers
10:20 PM 59.0 °F 53.6 °F 82% 29.74 in 6.2 mi SSW 11.5 mph - N/A Rain Light Rain Showers
10:50 PM 59.0 °F 53.6 °F 82% 29.74 in 6.2 mi SSW 12.7 mph - N/A Rain Light Rain Showers
11:20 PM 59.0 °F 53.6 °F 82% 29.74 in 6.2 mi SSW 10.4 mph - N/A Rain Light Rain Showers